This is the latest recevied weather packets stored in our database for station/object CE4JVU-10. If no packets are shown the sender has not sent any weather packets the latest 10 day(s).
| Time | Temp. | Humidity | Pressure | Rain* | Wind** | Luminosity | Snow |
|---|---|---|---|---|---|---|---|
| 1787856704 | 21.11° C | 57% | 976.3 hPa | - | - | - | - |
| 1787855803 | 20.56° C | 58% | 976.4 hPa | - | - | - | - |
| 1787854903 | 20.56° C | 60% | 976.7 hPa | - | - | - | - |
| 1787854003 | 19.44° C | 63% | 976.7 hPa | - | - | - | - |
| 1787853103 | 19.44° C | 64% | 977 hPa | - | - | - | - |
| 1787852203 | 19.44° C | 65% | 977.1 hPa | - | - | - | - |
| 1787851303 | 19.44° C | 64% | 977.3 hPa | - | - | - | - |
| 1787850403 | 19.44° C | 65% | 977.5 hPa | - | - | - | - |
| 1787849503 | 18.89° C | 66% | 977.6 hPa | - | - | - | - |
| 1787848603 | 19.44° C | 64% | 977.7 hPa | - | - | - | - |
| 1787847703 | 18.89° C | 63% | 977.6 hPa | - | - | - | - |
| 1787846802 | 18.33° C | 65% | 977.7 hPa | - | - | - | - |
| 1787845902 | 17.78° C | 66% | 977.8 hPa | - | - | - | - |
| 1787845002 | 17.78° C | 67% | 978 hPa | - | - | - | - |
| 1787844102 | 17.22° C | 69% | 977.7 hPa | - | - | - | - |
| 1787843202 | 16.67° C | 67% | 977.9 hPa | - | - | - | - |
| 1787842302 | 16.67° C | 67% | 977.9 hPa | - | - | - | - |
| 1787841402 | 15° C | 64% | 977.6 hPa | - | - | - | - |
| 1787840501 | 15.56° C | 66% | 977.7 hPa | - | - | - | - |
| 1787839605 | 16.11° C | 71% | 978 hPa | - | - | - | - |
| 1787838705 | 16.67° C | 69% | 978 hPa | - | - | - | - |
| 1787837804 | 16.11° C | 70% | 978.1 hPa | - | - | - | - |
| 1787836904 | 16.67° C | 70% | 978.1 hPa | - | - | - | - |
| 1787836004 | 16.11° C | 71% | 978.3 hPa | - | - | - | - |
| 1787835104 | 16.67° C | 71% | 978.1 hPa | - | - | - | - |
* Rain since midnight (hover to see other rain measurements)
** Current wind speed in m/s (hover to see current wind gust speed)